Time,TemperatureF,DewpointF,PressureIn,WindDirection,WindDirectionDegrees,WindSpeedMPH,WindSpeedGustMPH,Humidity,HourlyPrecipIn,Conditions,Clouds,dailyrainin,SolarRadiationWatts/m^2,SoftwareType,DateUTC
2013-11-01 00:03:00,48.0,47.0,-100.00,SW,221,6.0,10.0,95,0.00,,,-99.99,0.000000,,2013-11-01 05:03:00,
2013-11-01 00:12:00,48.0,47.0,-100.00,SW,221,6.0,10.0,95,0.00,,,-99.99,0.000000,,2013-11-01 05:12:00,
2013-11-01 00:42:00,49.0,47.0,-100.00,SW,231,8.0,15.0,92,0.00,,,-99.99,0.000000,,2013-11-01 05:42:00,
2013-11-01 00:53:00,49.0,47.0,-100.00,SW,231,8.0,15.0,92,0.00,,,-99.99,0.000000,,2013-11-01 05:53:00,
2013-11-01 01:02:00,49.0,47.0,-100.00,SW,231,8.0,15.0,92,0.00,,,-99.99,0.000000,,2013-11-01 06:02:00,
2013-11-01 01:12:00,49.0,47.0,-100.00,SW,231,8.0,15.0,92,0.00,,,-99.99,0.000000,,2013-11-01 06:12:00,
2013-11-01 01:42:00,48.0,46.0,-100.00,SW,236,7.0,15.0,92,0.00,,,-99.99,0.000000,,2013-11-01 06:42:00,
2013-11-01 01:52:00,48.0,46.0,-100.00,SW,236,7.0,15.0,92,0.00,,,-99.99,0.000000,,2013-11-01 06:52:00,
2013-11-01 02:02:00,48.0,46.0,-100.00,SW,236,7.0,15.0,92,0.00,,,-99.99,0.000000,,2013-11-01 07:02:00,
2013-11-01 02:12:00,48.0,46.0,-100.00,SW,236,7.0,15.0,92,0.00,,,-99.99,0.000000,,2013-11-01 07:12:00,
2013-11-01 02:42:00,48.0,45.0,-100.00,WSW,242,7.0,12.0,88,0.00,,,-99.99,0.000000,,2013-11-01 07:42:00,
2013-11-01 02:52:00,48.0,45.0,-100.00,WSW,242,7.0,12.0,88,0.00,,,-99.99,0.000000,,2013-11-01 07:52:00,
2013-11-01 03:02:00,48.0,45.0,-100.00,WSW,242,7.0,12.0,88,0.00,,,-99.99,0.000000,,2013-11-01 08:02:00,
2013-11-01 03:12:00,48.0,45.0,-100.00,WSW,242,7.0,12.0,88,0.00,,,-99.99,0.000000,,2013-11-01 08:12:00,
2013-11-01 03:42:00,47.0,44.0,-100.00,SW,228,6.0,10.0,90,0.00,,,-99.99,0.000000,,2013-11-01 08:42:00,
2013-11-01 03:52:00,47.0,44.0,-100.00,SW,228,6.0,10.0,90,0.00,,,-99.99,0.000000,,2013-11-01 08:52:00,
2013-11-01 04:02:00,47.0,44.0,-100.00,SW,228,6.0,10.0,90,0.00,,,-99.99,0.000000,,2013-11-01 09:02:00,
2013-11-01 04:12:00,47.0,44.0,-100.00,SW,228,6.0,10.0,90,0.00,,,-99.99,0.000000,,2013-11-01 09:12:00,
2013-11-01 04:13:00,47.0,44.0,-100.00,SW,225,5.0,11.0,88,0.00,,,-99.99,0.000000,,2013-11-01 09:13:00,
2013-11-01 04:43:00,47.0,44.0,-100.00,SW,225,5.0,11.0,88,0.00,,,-99.99,0.000000,,2013-11-01 09:43:00,
2013-11-01 04:53:00,47.0,44.0,-100.00,SW,225,5.0,11.0,88,0.00,,,-99.99,0.000000,,2013-11-01 09:53:00,
2013-11-01 05:03:00,47.0,44.0,-100.00,SW,225,5.0,11.0,88,0.00,,,-99.99,0.000000,,2013-11-01 10:03:00,
2013-11-01 05:43:00,47.0,43.0,-100.00,WSW,248,7.0,11.0,87,0.00,,,-99.99,0.000000,,2013-11-01 10:43:00,
2013-11-01 05:53:00,47.0,43.0,-100.00,WSW,248,7.0,11.0,87,0.00,,,-99.99,0.000000,,2013-11-01 10:53:00,
2013-11-01 06:02:00,47.0,43.0,-100.00,WSW,248,7.0,11.0,87,0.00,,,-99.99,0.000000,,2013-11-01 11:02:00,
2013-11-01 06:12:00,47.0,43.0,-100.00,WSW,248,7.0,11.0,87,0.00,,,-99.99,0.000000,,2013-11-01 11:12:00,
2013-11-01 06:42:00,46.0,42.0,-100.00,WSW,258,7.0,11.0,86,0.00,,,-99.99,0.000000,,2013-11-01 11:42:00,
2013-11-01 06:52:00,46.0,42.0,-100.00,WSW,258,7.0,11.0,86,0.00,,,-99.99,0.000000,,2013-11-01 11:52:00,
2013-11-01 07:02:00,46.0,42.0,-100.00,WSW,258,7.0,11.0,86,0.00,,,-99.99,0.000000,,2013-11-01 12:02:00,
2013-11-01 07:12:00,46.0,42.0,-100.00,WSW,258,7.0,11.0,86,0.00,,,-99.99,0.000000,,2013-11-01 12:12:00,
2013-11-01 07:42:00,45.0,41.0,-100.00,WSW,252,7.0,12.0,87,0.00,,,-99.99,0.000000,,2013-11-01 12:42:00,
2013-11-01 07:52:00,45.0,41.0,-100.00,WSW,252,7.0,12.0,87,0.00,,,-99.99,0.000000,,2013-11-01 12:52:00,
2013-11-01 08:01:00,45.0,41.0,-100.00,WSW,252,7.0,12.0,87,0.00,,,-99.99,0.000000,,2013-11-01 13:01:00,
2013-11-01 08:12:00,45.0,41.0,-100.00,WSW,252,7.0,12.0,87,0.00,,,-99.99,0.000000,,2013-11-01 13:12:00,
2013-11-01 08:42:00,44.0,41.0,-100.00,West,262,6.0,10.0,89,0.00,,,-99.99,21.000000,,2013-11-01 13:42:00,
2013-11-01 08:52:00,44.0,41.0,-100.00,West,262,6.0,10.0,89,0.00,,,-99.99,21.000000,,2013-11-01 13:52:00,
2013-11-01 09:02:00,44.0,41.0,-100.00,West,262,6.0,10.0,89,0.00,,,-99.99,21.000000,,2013-11-01 14:02:00,
2013-11-01 09:11:00,44.0,41.0,-100.00,West,262,6.0,10.0,89,0.00,,,-99.99,21.000000,,2013-11-01 14:11:00,
2013-11-01 09:42:00,49.0,43.0,-100.00,WSW,248,5.0,9.0,80,0.00,,,-99.99,214.000000,,2013-11-01 14:42:00,
2013-11-01 09:52:00,49.0,43.0,-100.00,WSW,248,5.0,9.0,80,0.00,,,-99.99,214.000000,,2013-11-01 14:52:00,
2013-11-01 10:02:00,49.0,43.0,-100.00,WSW,248,5.0,9.0,80,0.00,,,-99.99,214.000000,,2013-11-01 15:02:00,
2013-11-01 10:11:00,49.0,43.0,-100.00,WSW,248,5.0,9.0,80,0.00,,,-99.99,214.000000,,2013-11-01 15:11:00,
2013-11-01 10:44:00,52.0,43.0,-100.00,West,264,7.0,11.0,70,0.00,,,0.00,412.000000,,2013-11-01 15:44:00,
2013-11-01 10:54:00,52.0,43.0,-100.00,West,264,7.0,11.0,70,0.00,,,0.00,412.000000,,2013-11-01 15:54:00,
2013-11-01 11:04:00,52.0,43.0,-100.00,West,264,7.0,11.0,70,0.00,,,0.00,412.000000,,2013-11-01 16:04:00,
2013-11-01 11:12:00,52.0,43.0,-100.00,West,264,7.0,11.0,70,0.00,,,0.00,412.000000,,2013-11-01 16:12:00,
2013-11-01 11:43:00,57.0,42.0,-100.00,West,278,6.0,10.0,58,0.00,,,0.00,589.000000,,2013-11-01 16:43:00,
2013-11-01 11:53:00,57.0,42.0,-100.00,West,278,6.0,10.0,58,0.00,,,0.00,589.000000,,2013-11-01 16:53:00,
2013-11-01 12:02:00,57.0,42.0,-100.00,West,278,6.0,10.0,58,0.00,,,0.00,589.000000,,2013-11-01 17:02:00,
2013-11-01 12:12:00,57.0,42.0,-100.00,West,278,6.0,10.0,58,0.00,,,0.00,589.000000,,2013-11-01 17:12:00,
2013-11-01 12:43:00,60.0,41.0,-100.00,West,265,9.0,17.0,49,0.00,,,0.00,702.000000,,2013-11-01 17:43:00,
2013-11-01 12:52:00,60.0,41.0,-100.00,West,265,9.0,17.0,49,0.00,,,0.00,702.000000,,2013-11-01 17:52:00,
2013-11-01 13:01:00,60.0,41.0,-100.00,West,265,9.0,17.0,49,0.00,,,0.00,702.000000,,2013-11-01 18:01:00,
2013-11-01 13:12:00,60.0,41.0,-100.00,West,265,9.0,17.0,49,0.00,,,0.00,702.000000,,2013-11-01 18:12:00,
2013-11-01 13:42:00,62.0,39.0,-100.00,WNW,301,9.0,19.0,43,0.00,,,-99.99,737.000000,,2013-11-01 18:42:00,
2013-11-01 13:52:00,62.0,39.0,-100.00,WNW,301,9.0,19.0,43,0.00,,,-99.99,737.000000,,2013-11-01 18:52:00,
2013-11-01 14:02:00,62.0,39.0,-100.00,WNW,301,9.0,19.0,43,0.00,,,-99.99,737.000000,,2013-11-01 19:02:00,
2013-11-01 14:12:00,62.0,39.0,-100.00,WNW,301,9.0,19.0,43,0.00,,,-99.99,737.000000,,2013-11-01 19:12:00,
2013-11-01 14:42:00,59.0,37.0,-100.00,West,278,9.0,21.0,44,0.00,,,0.00,559.000000,,2013-11-01 19:42:00,
2013-11-01 14:52:00,59.0,37.0,-100.00,West,278,9.0,21.0,44,0.00,,,0.00,559.000000,,2013-11-01 19:52:00,
2013-11-01 15:02:00,59.0,37.0,-100.00,West,278,9.0,21.0,44,0.00,,,0.00,559.000000,,2013-11-01 20:02:00,
2013-11-01 15:12:00,59.0,37.0,-100.00,West,278,9.0,21.0,44,0.00,,,0.00,559.000000,,2013-11-01 20:12:00,
2013-11-01 15:42:00,60.0,39.0,-100.00,West,272,8.0,16.0,45,0.00,,,0.00,356.000000,,2013-11-01 20:42:00,
2013-11-01 15:52:00,60.0,39.0,-100.00,West,272,8.0,16.0,45,0.00,,,0.00,356.000000,,2013-11-01 20:52:00,
2013-11-01 16:01:00,60.0,39.0,-100.00,West,272,8.0,16.0,45,0.00,,,0.00,356.000000,,2013-11-01 21:01:00,
2013-11-01 16:12:00,60.0,39.0,-100.00,West,272,8.0,16.0,45,0.00,,,0.00,356.000000,,2013-11-01 21:12:00,
2013-11-01 16:13:00,61.0,39.0,-100.00,WNW,286,7.0,16.0,44,0.00,,,0.00,334.000000,,2013-11-01 21:13:00,
2013-11-01 16:44:00,61.0,39.0,-100.00,WNW,286,7.0,16.0,44,0.00,,,0.00,334.000000,,2013-11-01 21:44:00,
2013-11-01 16:55:00,61.0,39.0,-100.00,WNW,286,7.0,16.0,44,0.00,,,0.00,334.000000,,2013-11-01 21:55:00,
2013-11-01 17:03:00,61.0,39.0,-100.00,WNW,286,7.0,16.0,44,0.00,,,0.00,334.000000,,2013-11-01 22:03:00,
2013-11-01 17:42:00,58.0,37.0,-100.00,WNW,284,9.0,16.0,45,0.00,,,0.00,224.000000,,2013-11-01 22:42:00,
2013-11-01 17:53:00,58.0,37.0,-100.00,WNW,284,9.0,16.0,45,0.00,,,0.00,224.000000,,2013-11-01 22:53:00,
2013-11-01 18:03:00,58.0,37.0,-100.00,WNW,284,9.0,16.0,45,0.00,,,0.00,224.000000,,2013-11-01 23:03:00,
2013-11-01 18:12:00,58.0,37.0,-100.00,WNW,284,9.0,16.0,45,0.00,,,0.00,224.000000,,2013-11-01 23:12:00,
2013-11-01 18:42:00,57.0,39.0,-100.00,WNW,284,7.0,14.0,50,0.00,,,0.00,26.000000,,2013-11-01 23:42:00,
2013-11-01 18:53:00,57.0,39.0,-100.00,WNW,284,7.0,14.0,50,0.00,,,0.00,26.000000,,2013-11-01 23:53:00,
2013-11-01 19:02:00,57.0,39.0,-100.00,WNW,284,7.0,14.0,50,0.00,,,0.00,26.000000,,2013-11-02 00:02:00,
2013-11-01 19:11:00,57.0,39.0,-100.00,WNW,284,7.0,14.0,50,0.00,,,0.00,26.000000,,2013-11-02 00:11:00,
2013-11-01 19:42:00,50.0,43.0,-100.00,WNW,282,4.0,21.0,77,0.00,,,0.00,0.000000,,2013-11-02 00:42:00,
2013-11-01 19:52:00,50.0,43.0,-100.00,WNW,282,4.0,21.0,77,0.00,,,0.00,0.000000,,2013-11-02 00:52:00,
2013-11-01 20:02:00,50.0,43.0,-100.00,WNW,282,4.0,21.0,77,0.00,,,0.00,0.000000,,2013-11-02 01:02:00,
2013-11-01 20:12:00,50.0,43.0,-100.00,WNW,282,4.0,21.0,77,0.00,,,0.00,0.000000,,2013-11-02 01:12:00,
2013-11-01 20:42:00,48.0,42.0,-100.00,WNW,300,3.0,6.0,81,0.00,,,0.00,0.000000,,2013-11-02 01:42:00,
2013-11-01 20:52:00,48.0,42.0,-100.00,WNW,300,3.0,6.0,81,0.00,,,0.00,0.000000,,2013-11-02 01:52:00,
2013-11-01 21:02:00,48.0,42.0,-100.00,WNW,300,3.0,6.0,81,0.00,,,0.00,0.000000,,2013-11-02 02:02:00,
2013-11-01 21:11:00,48.0,42.0,-100.00,WNW,300,3.0,6.0,81,0.00,,,0.00,0.000000,,2013-11-02 02:11:00,
2013-11-01 21:42:00,47.0,41.0,-100.00,West,268,4.0,7.0,80,0.00,,,0.00,0.000000,,2013-11-02 02:42:00,
2013-11-01 21:53:00,47.0,41.0,-100.00,West,268,4.0,7.0,80,0.00,,,0.00,0.000000,,2013-11-02 02:53:00,
2013-11-01 22:02:00,47.0,41.0,-100.00,West,268,4.0,7.0,80,0.00,,,0.00,0.000000,,2013-11-02 03:02:00,
2013-11-01 22:11:00,47.0,41.0,-100.00,West,268,4.0,7.0,80,0.00,,,0.00,0.000000,,2013-11-02 03:11:00,
2013-11-01 22:13:00,48.0,40.0,-100.00,WSW,250,5.0,7.0,73,0.00,,,0.00,0.000000,,2013-11-02 03:13:00,
2013-11-01 22:44:00,48.0,40.0,-100.00,WSW,250,5.0,7.0,73,0.00,,,0.00,0.000000,,2013-11-02 03:44:00,
2013-11-01 22:54:00,48.0,40.0,-100.00,WSW,250,5.0,7.0,73,0.00,,,0.00,0.000000,,2013-11-02 03:54:00,
2013-11-01 23:04:00,48.0,40.0,-100.00,WSW,250,5.0,7.0,73,0.00,,,0.00,0.000000,,2013-11-02 04:04:00,
2013-11-01 23:13:00,47.0,39.0,-100.00,WSW,242,6.0,10.0,73,0.00,,,0.00,0.000000,,2013-11-02 04:13:00,
2013-11-01 23:44:00,47.0,39.0,-100.00,WSW,242,6.0,10.0,73,0.00,,,0.00,0.000000,,2013-11-02 04:44:00,
2013-11-01 23:54:00,47.0,39.0,-100.00,WSW,242,6.0,10.0,73,0.00,,,0.00,0.000000,,2013-11-02 04:54:00,